Time,TemperatureF,DewpointF,PressureIn,WindDirection,WindDirectionDegrees,WindSpeedMPH,WindSpeedGustMPH,Humidity,HourlyPrecipIn,Conditions,Clouds,dailyrainin,SoftwareType,DateUTC
2013-01-29 00:00:00,39.3,38.3,29.99,West,275,1.0,1.0,96,0.00,,,0.00,Wunderground v.1.15,2013-01-29 05:00:00,
2013-01-29 00:02:00,39.3,38.3,29.99,WSW,250,1.0,1.0,96,0.00,,,0.00,Wunderground v.1.15,2013-01-29 05:02:00,
2013-01-29 00:08:00,39.3,38.3,29.99,West,264,1.0,2.0,96,0.00,,,0.00,Wunderground v.1.15,2013-01-29 05:08:00,
2013-01-29 00:12:00,39.3,38.3,29.99,SSW,194,0.0,0.0,96,0.00,,,0.00,Wunderground v.1.15,2013-01-29 05:12:00,
2013-01-29 00:18:00,39.2,38.2,29.99,WSW,238,0.0,1.0,96,0.00,,,0.00,Wunderground v.1.15,2013-01-29 05:18:00,
2013-01-29 00:24:00,39.3,38.3,29.99,WSW,238,0.0,1.0,96,0.00,,,0.00,Wunderground v.1.15,2013-01-29 05:24:00,
2013-01-29 00:30:00,39.2,38.2,29.99,SW,221,0.0,2.0,96,0.00,,,0.00,Wunderground v.1.15,2013-01-29 05:30:00,
2013-01-29 00:36:00,39.1,37.8,29.99,SSW,211,0.0,2.0,95,0.00,,,0.00,Wunderground v.1.15,2013-01-29 05:36:00,
2013-01-29 00:42:00,38.9,37.6,29.99,SW,236,0.0,1.0,95,0.00,,,0.00,Wunderground v.1.15,2013-01-29 05:42:00,
2013-01-29 00:48:00,38.8,37.5,29.99,SW,228,0.0,1.0,95,0.00,,,0.00,Wunderground v.1.15,2013-01-29 05:48:00,
2013-01-29 00:54:00,38.7,37.4,29.99,SW,228,0.0,0.0,95,0.00,,,0.00,Wunderground v.1.15,2013-01-29 05:54:00,
2013-01-29 01:00:00,38.6,37.3,30.00,SW,235,0.0,0.0,95,0.00,,,0.00,Wunderground v.1.15,2013-01-29 06:00:00,
2013-01-29 01:06:00,38.5,37.2,30.00,WSW,254,0.0,0.0,95,0.00,,,0.00,Wunderground v.1.15,2013-01-29 06:06:00,
2013-01-29 01:12:00,38.4,37.1,30.00,West,269,1.0,2.0,95,0.00,,,0.00,Wunderground v.1.15,2013-01-29 06:12:00,
2013-01-29 01:18:00,38.3,36.7,30.00,WSW,238,1.0,2.0,94,0.00,,,0.00,Wunderground v.1.15,2013-01-29 06:18:00,
2013-01-29 01:24:00,38.2,36.6,30.00,SW,224,1.0,1.0,94,0.00,,,0.00,Wunderground v.1.15,2013-01-29 06:24:00,
2013-01-29 01:30:00,38.1,36.5,30.00,WSW,238,1.0,2.0,94,0.00,,,0.00,Wunderground v.1.15,2013-01-29 06:30:00,
2013-01-29 01:36:00,38.0,36.4,30.00,SW,222,0.0,2.0,94,0.00,,,0.00,Wunderground v.1.15,2013-01-29 06:36:00,
2013-01-29 01:42:00,37.9,36.3,30.00,SSW,198,0.0,0.0,94,0.00,,,0.00,Wunderground v.1.15,2013-01-29 06:42:00,
2013-01-29 01:48:00,37.8,36.2,30.00,SW,231,0.0,1.0,94,0.00,,,0.00,Wunderground v.1.15,2013-01-29 06:48:00,
2013-01-29 01:54:00,37.7,36.1,30.00,SW,233,0.0,0.0,94,0.00,,,0.00,Wunderground v.1.15,2013-01-29 06:54:00,
2013-01-29 02:00:00,37.6,36.0,30.00,WSW,240,0.0,0.0,94,0.00,,,0.00,Wunderground v.1.15,2013-01-29 07:00:00,
2013-01-29 02:06:00,37.5,35.9,30.01,North,10,0.0,1.0,94,0.00,,,0.00,Wunderground v.1.15,2013-01-29 07:06:00,
2013-01-29 02:12:00,37.5,35.9,30.01,SW,233,0.0,0.0,94,0.00,,,0.00,Wunderground v.1.15,2013-01-29 07:12:00,
2013-01-29 02:18:00,37.4,35.8,30.01,WSW,253,0.0,0.0,94,0.00,,,0.00,Wunderground v.1.15,2013-01-29 07:18:00,
2013-01-29 02:24:00,37.3,35.7,30.02,NNE,15,0.0,1.0,94,0.00,,,0.00,Wunderground v.1.15,2013-01-29 07:24:00,
2013-01-29 02:30:00,37.2,35.6,30.02,SW,226,0.0,0.0,94,0.00,,,0.00,Wunderground v.1.15,2013-01-29 07:30:00,
2013-01-29 02:36:00,37.1,35.5,30.02,WSW,238,0.0,1.0,94,0.00,,,0.00,Wunderground v.1.15,2013-01-29 07:36:00,
2013-01-29 02:42:00,37.1,35.5,30.02,WSW,245,0.0,0.0,94,0.00,,,0.00,Wunderground v.1.15,2013-01-29 07:42:00,
2013-01-29 02:48:00,37.0,35.4,30.02,NE,47,0.0,0.0,94,0.00,,,0.00,Wunderground v.1.15,2013-01-29 07:48:00,
2013-01-29 02:54:00,36.9,35.3,30.02,WSW,243,0.0,0.0,94,0.00,,,0.00,Wunderground v.1.15,2013-01-29 07:54:00,
2013-01-29 03:00:00,36.8,35.2,30.02,WSW,240,0.0,0.0,94,0.00,,,0.00,Wunderground v.1.15,2013-01-29 08:00:00,
2013-01-29 03:06:00,36.7,35.1,30.02,SW,231,0.0,1.0,94,0.00,,,0.00,Wunderground v.1.15,2013-01-29 08:06:00,
2013-01-29 03:12:00,36.7,35.1,30.02,WSW,244,0.0,0.0,94,0.00,,,0.00,Wunderground v.1.15,2013-01-29 08:12:00,
2013-01-29 03:18:00,36.7,35.1,30.02,WSW,246,0.0,0.0,94,0.00,,,0.00,Wunderground v.1.15,2013-01-29 08:18:00,
2013-01-29 03:24:00,36.6,35.0,30.01,WSW,246,0.0,0.0,94,0.00,,,0.00,Wunderground v.1.15,2013-01-29 08:24:00,
2013-01-29 03:30:00,36.5,34.9,30.01,SW,221,0.0,0.0,94,0.00,,,0.00,Wunderground v.1.15,2013-01-29 08:30:00,
2013-01-29 03:36:00,36.5,35.2,30.01,SW,222,0.0,0.0,95,0.00,,,0.00,Wunderground v.1.15,2013-01-29 08:36:00,
2013-01-29 03:42:00,36.4,35.1,30.02,WSW,240,0.0,0.0,95,0.00,,,0.00,Wunderground v.1.15,2013-01-29 08:42:00,
2013-01-29 03:48:00,36.4,35.1,30.01,SW,221,0.0,1.0,95,0.00,,,0.00,Wunderground v.1.15,2013-01-29 08:48:00,
2013-01-29 03:54:00,36.4,35.1,30.02,SW,233,0.0,0.0,95,0.00,,,0.00,Wunderground v.1.15,2013-01-29 08:54:00,
2013-01-29 04:00:00,36.4,35.1,30.02,SW,219,0.0,0.0,95,0.00,,,0.00,Wunderground v.1.15,2013-01-29 09:00:00,
2013-01-29 04:06:00,36.2,34.6,30.02,SSW,197,0.0,1.0,94,0.00,,,0.00,Wunderground v.1.15,2013-01-29 09:06:00,
2013-01-29 04:12:00,36.0,34.7,30.01,South,174,0.0,1.0,95,0.00,,,0.00,Wunderground v.1.15,2013-01-29 09:12:00,
2013-01-29 04:18:00,35.9,34.6,30.02,SW,224,0.0,1.0,95,0.00,,,0.00,Wunderground v.1.15,2013-01-29 09:18:00,
2013-01-29 04:24:00,35.7,34.4,30.02,WSW,248,0.0,0.0,95,0.00,,,0.00,Wunderground v.1.15,2013-01-29 09:24:00,
2013-01-29 04:30:00,35.7,34.4,30.02,SSW,207,0.0,1.0,95,0.00,,,0.00,Wunderground v.1.15,2013-01-29 09:30:00,
2013-01-29 04:36:00,35.6,34.3,30.02,SW,222,0.0,1.0,95,0.00,,,0.00,Wunderground v.1.15,2013-01-29 09:36:00,
2013-01-29 04:42:00,35.5,34.2,30.02,SW,229,0.0,0.0,95,0.00,,,0.00,Wunderground v.1.15,2013-01-29 09:42:00,
2013-01-29 04:48:00,35.5,34.2,30.02,SW,229,0.0,0.0,95,0.00,,,0.00,Wunderground v.1.15,2013-01-29 09:48:00,
2013-01-29 04:54:00,35.5,34.2,30.02,SW,222,0.0,0.0,95,0.00,,,0.00,Wunderground v.1.15,2013-01-29 09:54:00,
2013-01-29 05:00:00,35.4,34.1,30.03,SSW,205,0.0,0.0,95,0.00,,,0.00,Wunderground v.1.15,2013-01-29 10:00:00,
2013-01-29 05:06:00,35.4,34.1,30.03,SW,219,0.0,0.0,95,0.00,,,0.00,Wunderground v.1.15,2013-01-29 10:06:00,
2013-01-29 05:12:00,35.4,34.1,30.03,SW,231,0.0,0.0,95,0.00,,,0.00,Wunderground v.1.15,2013-01-29 10:12:00,
2013-01-29 05:18:00,35.3,34.0,30.03,SW,216,0.0,0.0,95,0.00,,,0.00,Wunderground v.1.15,2013-01-29 10:18:00,
2013-01-29 05:24:00,35.3,34.0,30.03,SW,216,0.0,0.0,95,0.00,,,0.00,Wunderground v.1.15,2013-01-29 10:24:00,
2013-01-29 05:30:00,35.3,34.0,30.03,SW,216,0.0,0.0,95,0.00,,,0.00,Wunderground v.1.15,2013-01-29 10:30:00,
2013-01-29 05:36:00,35.2,33.9,30.02,SW,217,0.0,0.0,95,0.00,,,0.00,Wunderground v.1.15,2013-01-29 10:36:00,
2013-01-29 05:42:00,35.2,33.9,30.02,SW,217,0.0,0.0,95,0.00,,,0.00,Wunderground v.1.15,2013-01-29 10:42:00,
2013-01-29 05:48:00,35.2,33.9,30.02,SW,217,0.0,0.0,95,0.00,,,0.00,Wunderground v.1.15,2013-01-29 10:48:00,
2013-01-29 05:54:00,35.1,33.8,30.02,SW,216,0.0,0.0,95,0.00,,,0.00,Wunderground v.1.15,2013-01-29 10:54:00,
2013-01-29 06:00:00,35.1,33.8,30.01,SW,217,0.0,0.0,95,0.00,,,0.00,Wunderground v.1.15,2013-01-29 11:00:00,
2013-01-29 06:06:00,35.1,33.8,30.00,ESE,120,0.0,0.0,95,0.00,,,0.00,Wunderground v.1.15,2013-01-29 11:06:00,
2013-01-29 06:12:00,35.1,33.8,30.01,SE,134,0.0,0.0,95,0.00,,,0.00,Wunderground v.1.15,2013-01-29 11:12:00,
2013-01-29 06:18:00,35.1,33.8,30.00,SE,136,0.0,0.0,95,0.00,,,0.00,Wunderground v.1.15,2013-01-29 11:18:00,
2013-01-29 06:24:00,35.0,33.7,30.01,South,188,0.0,2.0,95,0.00,,,0.00,Wunderground v.1.15,2013-01-29 11:24:00,
2013-01-29 06:30:00,35.0,33.7,30.02,South,191,1.0,1.0,95,0.00,,,0.00,Wunderground v.1.15,2013-01-29 11:30:00,
2013-01-29 06:36:00,35.1,33.8,30.02,SW,233,0.0,1.0,95,0.00,,,0.00,Wunderground v.1.15,2013-01-29 11:36:00,
2013-01-29 06:42:00,35.0,33.7,30.02,SSW,212,0.0,0.0,95,0.00,,,0.00,Wunderground v.1.15,2013-01-29 11:42:00,
2013-01-29 06:48:00,35.1,33.5,30.01,SW,219,0.0,0.0,94,0.00,,,0.00,Wunderground v.1.15,2013-01-29 11:48:00,
2013-01-29 06:54:00,35.0,33.4,30.02,SW,219,0.0,0.0,94,0.00,,,0.00,Wunderground v.1.15,2013-01-29 11:54:00,
2013-01-29 07:00:00,35.0,33.7,30.01,SW,219,0.0,0.0,95,0.00,,,0.00,Wunderground v.1.15,2013-01-29 12:00:00,
2013-01-29 07:06:00,34.9,33.3,30.00,SW,219,0.0,0.0,94,0.00,,,0.00,Wunderground v.1.15,2013-01-29 12:06:00,
2013-01-29 07:12:00,34.8,33.2,30.00,SW,217,0.0,0.0,94,0.00,,,0.00,Wunderground v.1.15,2013-01-29 12:12:00,
2013-01-29 07:18:00,34.9,33.6,30.01,SW,217,0.0,0.0,95,0.00,,,0.00,Wunderground v.1.15,2013-01-29 12:18:00,
2013-01-29 07:24:00,35.0,33.7,30.01,SSE,148,0.0,0.0,95,0.00,,,0.00,Wunderground v.1.15,2013-01-29 12:24:00,
2013-01-29 07:30:00,35.0,33.7,30.01,SE,135,0.0,0.0,95,0.00,,,0.00,Wunderground v.1.15,2013-01-29 12:30:00,
2013-01-29 07:36:00,35.1,33.8,30.01,ESE,120,0.0,0.0,95,0.00,,,0.00,Wunderground v.1.15,2013-01-29 12:36:00,
2013-01-29 07:42:00,35.1,33.8,30.01,SE,131,0.0,0.0,95,0.00,,,0.00,Wunderground v.1.15,2013-01-29 12:42:00,
2013-01-29 07:48:00,35.1,33.8,30.01,SE,131,0.0,0.0,95,0.00,,,0.00,Wunderground v.1.15,2013-01-29 12:48:00,
2013-01-29 07:54:00,35.1,33.8,30.01,SE,131,0.0,0.0,95,0.00,,,0.00,Wunderground v.1.15,2013-01-29 12:54:00,
2013-01-29 08:00:00,35.1,33.8,30.01,North,8,0.0,0.0,95,0.00,,,0.00,Wunderground v.1.15,2013-01-29 13:00:00,
2013-01-29 08:06:00,35.1,33.8,30.01,North,8,0.0,0.0,95,0.00,,,0.00,Wunderground v.1.15,2013-01-29 13:06:00,
2013-01-29 08:12:00,35.2,33.9,30.00,North,9,0.0,0.0,95,0.00,,,0.00,Wunderground v.1.15,2013-01-29 13:12:00,
2013-01-29 08:18:00,35.2,34.2,30.00,North,8,0.0,0.0,96,0.00,,,0.00,Wunderground v.1.15,2013-01-29 13:18:00,
2013-01-29 08:24:00,35.2,34.2,30.01,SSE,166,0.0,0.0,96,0.00,,,0.00,Wunderground v.1.15,2013-01-29 13:24:00,
2013-01-29 08:30:00,35.3,34.3,30.01,SSE,166,0.0,0.0,96,0.00,,,0.00,Wunderground v.1.15,2013-01-29 13:30:00,
2013-01-29 08:36:00,35.4,34.4,30.00,SSE,156,0.0,0.0,96,0.00,,,0.00,Wunderground v.1.15,2013-01-29 13:36:00,
2013-01-29 08:42:00,35.4,34.4,30.00,SSE,156,0.0,0.0,96,0.00,,,0.00,Wunderground v.1.15,2013-01-29 13:42:00,
2013-01-29 08:48:00,35.5,34.5,30.00,SSE,156,0.0,0.0,96,0.00,,,0.00,Wunderground v.1.15,2013-01-29 13:48:00,
2013-01-29 08:54:00,35.7,34.7,29.99,SSE,150,0.0,0.0,96,0.00,,,0.00,Wunderground v.1.15,2013-01-29 13:54:00,
2013-01-29 09:00:00,35.8,34.8,29.99,SSE,150,0.0,0.0,96,0.00,,,0.00,Wunderground v.1.15,2013-01-29 14:00:00,
2013-01-29 09:06:00,35.9,34.9,29.98,North,355,0.0,0.0,96,0.00,,,0.00,Wunderground v.1.15,2013-01-29 14:06:00,
2013-01-29 09:12:00,36.0,35.0,29.98,North,355,0.0,0.0,96,0.00,,,0.00,Wunderground v.1.15,2013-01-29 14:12:00,
2013-01-29 09:18:00,36.1,35.1,29.98,North,355,0.0,0.0,96,0.00,,,0.00,Wunderground v.1.15,2013-01-29 14:18:00,
2013-01-29 09:24:00,36.2,35.2,29.97,SE,143,0.0,0.0,96,0.00,,,0.00,Wunderground v.1.15,2013-01-29 14:24:00,
2013-01-29 09:30:00,36.4,35.4,29.96,South,179,0.0,0.0,96,0.00,,,0.00,Wunderground v.1.15,2013-01-29 14:30:00,
2013-01-29 09:36:00,36.7,35.7,29.96,East,81,0.0,0.0,96,0.00,,,0.00,Wunderground v.1.15,2013-01-29 14:36:00,
2013-01-29 09:42:00,36.8,35.8,29.95,SE,131,0.0,0.0,96,0.00,,,0.00,Wunderground v.1.15,2013-01-29 14:42:00,
2013-01-29 09:48:00,37.1,36.1,29.96,SE,131,0.0,0.0,96,0.00,,,0.00,Wunderground v.1.15,2013-01-29 14:48:00,
2013-01-29 09:54:00,37.3,36.3,29.96,ENE,57,0.0,0.0,96,0.00,,,0.00,Wunderground v.1.15,2013-01-29 14:54:00,
2013-01-29 10:00:00,37.5,36.5,29.95,SSE,158,0.0,0.0,96,0.00,,,0.00,Wunderground v.1.15,2013-01-29 15:00:00,
2013-01-29 10:06:00,37.7,36.7,29.95,East,96,0.0,0.0,96,0.00,,,0.00,Wunderground v.1.15,2013-01-29 15:06:00,
2013-01-29 10:12:00,37.9,36.9,29.94,NNW,348,0.0,0.0,96,0.00,,,0.00,Wunderground v.1.15,2013-01-29 15:12:00,
2013-01-29 10:18:00,38.2,36.9,29.93,NE,34,0.0,0.0,95,0.00,,,0.00,Wunderground v.1.15,2013-01-29 15:18:00,
2013-01-29 10:24:00,38.5,37.2,29.93,WNW,297,0.0,0.0,95,0.00,,,0.00,Wunderground v.1.15,2013-01-29 15:24:00,
2013-01-29 10:30:00,38.7,37.4,29.92,North,357,0.0,1.0,95,0.00,,,0.00,Wunderground v.1.15,2013-01-29 15:30:00,
2013-01-29 10:36:00,38.9,37.6,29.92,North,359,1.0,2.0,95,0.00,,,0.00,Wunderground v.1.15,2013-01-29 15:36:00,
2013-01-29 10:42:00,39.1,37.8,29.92,North,6,1.0,1.0,95,0.00,,,0.00,Wunderground v.1.15,2013-01-29 15:42:00,
2013-01-29 10:48:00,39.2,37.9,29.92,North,358,0.0,1.0,95,0.00,,,0.00,Wunderground v.1.15,2013-01-29 15:48:00,
2013-01-29 10:54:00,39.4,38.1,29.92,NNW,342,0.0,0.0,95,0.00,,,0.00,Wunderground v.1.15,2013-01-29 15:54:00,
2013-01-29 11:00:00,39.6,38.3,29.92,NE,49,0.0,0.0,95,0.00,,,0.00,Wunderground v.1.15,2013-01-29 16:00:00,
2013-01-29 11:06:00,39.8,38.5,29.90,North,355,0.0,0.0,95,0.00,,,0.00,Wunderground v.1.15,2013-01-29 16:06:00,
2013-01-29 11:12:00,39.9,38.6,29.90,NNE,30,0.0,1.0,95,0.00,,,0.01,Wunderground v.1.15,2013-01-29 16:12:00,
2013-01-29 11:18:00,39.8,38.5,29.91,NNE,27,1.0,1.0,95,0.00,,,0.01,Wunderground v.1.15,2013-01-29 16:18:00,
2013-01-29 11:24:00,39.7,38.4,29.91,NE,43,1.0,2.0,95,0.00,,,0.01,Wunderground v.1.15,2013-01-29 16:24:00,
2013-01-29 11:30:00,39.6,38.3,29.91,NNW,329,1.0,2.0,95,0.00,,,0.02,Wunderground v.1.15,2013-01-29 16:30:00,
2013-01-29 11:36:00,39.3,38.0,29.92,North,358,3.0,4.0,95,0.08,,,0.03,Wunderground v.1.15,2013-01-29 16:36:00,
2013-01-29 11:42:00,39.1,37.8,29.94,South,174,3.0,3.0,95,0.30,,,0.05,Wunderground v.1.15,2013-01-29 16:42:00,
2013-01-29 11:48:00,38.9,37.6,29.98,NNE,27,1.0,3.0,95,0.81,,,0.16,Wunderground v.1.15,2013-01-29 16:48:00,
2013-01-29 11:54:00,38.7,37.4,29.94,North,5,1.0,1.0,95,0.30,,,0.20,Wunderground v.1.15,2013-01-29 16:54:00,
2013-01-29 12:00:00,38.6,37.6,29.90,NNE,23,1.0,1.0,96,0.31,,,0.23,Wunderground v.1.15,2013-01-29 17:00:00,
2013-01-29 12:06:00,38.5,37.5,29.90,WSW,238,0.0,1.0,96,0.27,,,0.26,Wunderground v.1.15,2013-01-29 17:06:00,
2013-01-29 12:12:00,38.5,37.5,29.85,SE,127,1.0,7.0,96,0.40,,,0.30,Wunderground v.1.15,2013-01-29 17:12:00,
2013-01-29 12:18:00,38.6,37.6,29.82,North,353,3.0,9.0,96,0.22,,,0.33,Wunderground v.1.15,2013-01-29 17:18:00,
2013-01-29 12:24:00,39.1,38.3,29.85,SE,141,3.0,6.0,97,0.13,,,0.34,Wunderground v.1.15,2013-01-29 17:24:00,
2013-01-29 12:30:00,39.7,38.9,29.84,South,181,2.0,2.0,97,0.07,,,0.34,Wunderground v.1.15,2013-01-29 17:30:00,
2013-01-29 12:36:00,40.4,39.6,29.88,WSW,246,2.0,3.0,97,0.04,,,0.34,Wunderground v.1.15,2013-01-29 17:36:00,
2013-01-29 12:42:00,40.9,40.1,29.88,West,276,1.0,1.0,97,0.00,,,0.34,Wunderground v.1.15,2013-01-29 17:42:00,
2013-01-29 12:48:00,41.1,40.3,29.89,WNW,302,0.0,1.0,97,0.00,,,0.34,Wunderground v.1.15,2013-01-29 17:48:00,
2013-01-29 12:54:00,41.2,40.4,29.87,NNE,19,0.0,1.0,97,0.00,,,0.34,Wunderground v.1.15,2013-01-29 17:54:00,
2013-01-29 13:00:00,41.2,40.4,29.87,NNE,18,1.0,1.0,97,0.00,,,0.35,Wunderground v.1.15,2013-01-29 18:00:00,
2013-01-29 13:06:00,41.2,40.4,29.87,NNE,18,0.0,1.0,97,0.00,,,0.35,Wunderground v.1.15,2013-01-29 18:06:00,
2013-01-29 13:12:00,41.2,40.4,29.85,North,349,0.0,0.0,97,0.00,,,0.35,Wunderground v.1.15,2013-01-29 18:12:00,
2013-01-29 13:18:00,41.4,40.6,29.85,SE,138,0.0,0.0,97,0.00,,,0.35,Wunderground v.1.15,2013-01-29 18:18:00,
2013-01-29 13:24:00,41.7,40.9,29.85,SE,138,0.0,0.0,97,0.00,,,0.35,Wunderground v.1.15,2013-01-29 18:24:00,
2013-01-29 13:30:00,41.8,41.0,29.84,NNW,346,0.0,0.0,97,0.00,,,0.35,Wunderground v.1.15,2013-01-29 18:30:00,
2013-01-29 13:36:00,42.0,41.2,29.84,North,5,0.0,0.0,97,0.00,,,0.36,Wunderground v.1.15,2013-01-29 18:36:00,
2013-01-29 13:42:00,42.3,41.5,29.84,North,4,0.0,0.0,97,0.00,,,0.36,Wunderground v.1.15,2013-01-29 18:42:00,
2013-01-29 13:48:00,42.5,41.7,29.84,North,4,0.0,0.0,97,0.00,,,0.36,Wunderground v.1.15,2013-01-29 18:48:00,
2013-01-29 13:54:00,42.7,41.9,29.83,SE,138,0.0,0.0,97,0.00,,,0.36,Wunderground v.1.15,2013-01-29 18:54:00,
2013-01-29 14:00:00,43.0,42.2,29.83,SE,138,0.0,0.0,97,0.00,,,0.36,Wunderground v.1.15,2013-01-29 19:00:00,
2013-01-29 14:06:00,43.3,42.5,29.83,SE,138,0.0,0.0,97,0.00,,,0.36,Wunderground v.1.15,2013-01-29 19:06:00,
2013-01-29 14:12:00,43.5,42.7,29.82,SE,138,0.0,0.0,97,0.00,,,0.36,Wunderground v.1.15,2013-01-29 19:12:00,
2013-01-29 14:18:00,43.6,42.8,29.82,SE,138,0.0,0.0,97,0.00,,,0.36,Wunderground v.1.15,2013-01-29 19:18:00,
2013-01-29 14:24:00,43.8,43.0,29.81,SE,138,0.0,0.0,97,0.00,,,0.36,Wunderground v.1.15,2013-01-29 19:24:00,
2013-01-29 14:30:00,44.1,43.3,29.81,SE,138,0.0,0.0,97,0.00,,,0.37,Wunderground v.1.15,2013-01-29 19:30:00,
2013-01-29 14:36:00,44.2,43.4,29.81,SE,138,0.0,0.0,97,0.00,,,0.37,Wunderground v.1.15,2013-01-29 19:36:00,
2013-01-29 14:42:00,44.5,43.7,29.82,SE,138,0.0,0.0,97,0.00,,,0.37,Wunderground v.1.15,2013-01-29 19:42:00,
2013-01-29 14:48:00,44.7,43.9,29.82,SE,138,0.0,0.0,97,0.00,,,0.37,Wunderground v.1.15,2013-01-29 19:48:00,
2013-01-29 14:54:00,45.0,44.2,29.82,SE,138,0.0,0.0,97,0.00,,,0.37,Wunderground v.1.15,2013-01-29 19:54:00,
2013-01-29 15:00:00,45.4,44.9,29.83,SE,138,0.0,0.0,98,0.00,,,0.38,Wunderground v.1.15,2013-01-29 20:00:00,
2013-01-29 15:06:00,45.4,44.6,29.83,SE,138,0.0,0.0,97,0.22,,,0.40,Wunderground v.1.15,2013-01-29 20:06:00,
2013-01-29 15:10:00,45.5,44.7,29.82,SE,138,0.0,0.0,97,0.14,,,0.40,Wunderground v.1.15,2013-01-29 20:10:00,
2013-01-29 15:16:00,46.2,45.7,29.82,SW,215,0.0,2.0,98,0.08,,,0.41,Wunderground v.1.15,2013-01-29 20:16:00,
2013-01-29 15:22:00,47.0,46.5,29.82,SSW,200,1.0,2.0,98,0.54,,,0.44,Wunderground v.1.15,2013-01-29 20:22:00,
2013-01-29 15:28:00,47.6,47.1,29.81,South,190,1.0,2.0,98,0.21,,,0.46,Wunderground v.1.15,2013-01-29 20:28:00,
2013-01-29 15:34:00,48.4,47.9,29.81,South,177,2.0,4.0,98,0.07,,,0.46,Wunderground v.1.15,2013-01-29 20:34:00,
2013-01-29 15:40:00,48.9,48.4,29.81,SW,228,2.0,2.0,98,0.04,,,0.46,Wunderground v.1.15,2013-01-29 20:40:00,
2013-01-29 15:46:00,49.3,48.8,29.81,South,190,2.0,2.0,98,0.00,,,0.47,Wunderground v.1.15,2013-01-29 20:46:00,
2013-01-29 15:52:00,49.6,49.1,29.80,South,176,2.0,5.0,98,0.00,,,0.47,Wunderground v.1.15,2013-01-29 20:52:00,
2013-01-29 15:58:00,49.9,49.4,29.80,South,172,3.0,5.0,98,0.07,,,0.48,Wunderground v.1.15,2013-01-29 20:58:00,
2013-01-29 16:04:00,50.2,49.7,29.80,WSW,253,4.0,4.0,98,0.06,,,0.48,Wunderground v.1.15,2013-01-29 21:04:00,
2013-01-29 16:10:00,50.5,50.0,29.80,SSW,207,4.0,4.0,98,0.04,,,0.48,Wunderground v.1.15,2013-01-29 21:10:00,
2013-01-29 16:16:00,50.6,50.1,29.80,SW,222,4.0,4.0,98,0.00,,,0.48,Wunderground v.1.15,2013-01-29 21:16:00,
2013-01-29 16:28:00,50.8,50.3,29.80,SW,217,3.0,7.0,98,0.00,,,0.48,Wunderground v.1.15,2013-01-29 21:28:00,
2013-01-29 16:36:00,51.2,50.4,29.80,ESE,104,3.0,3.0,97,0.00,,,0.48,Wunderground v.1.15,2013-01-29 21:36:00,
2013-01-29 16:42:00,51.3,50.5,29.80,SSW,212,3.0,5.0,97,0.00,,,0.48,Wunderground v.1.15,2013-01-29 21:42:00,
2013-01-29 16:48:00,51.4,50.6,29.80,SSW,212,2.0,2.0,97,0.00,,,0.48,Wunderground v.1.15,2013-01-29 21:48:00,
2013-01-29 16:54:00,51.6,50.5,29.80,SSW,206,2.0,5.0,96,0.00,,,0.48,Wunderground v.1.15,2013-01-29 21:54:00,
2013-01-29 17:00:00,51.7,50.6,29.80,SSW,194,3.0,4.0,96,0.00,,,0.48,Wunderground v.1.15,2013-01-29 22:00:00,
2013-01-29 17:06:00,51.9,50.5,29.80,SSE,149,3.0,4.0,95,0.00,,,0.48,Wunderground v.1.15,2013-01-29 22:06:00,
2013-01-29 17:12:00,52.0,50.6,29.81,SSW,203,3.0,4.0,95,0.00,,,0.48,Wunderground v.1.15,2013-01-29 22:12:00,
2013-01-29 17:18:00,52.1,50.7,29.81,WSW,239,3.0,4.0,95,0.00,,,0.48,Wunderground v.1.15,2013-01-29 22:18:00,
2013-01-29 17:24:00,52.2,50.8,29.80,WSW,248,3.0,3.0,95,0.00,,,0.48,Wunderground v.1.15,2013-01-29 22:24:00,
2013-01-29 17:30:00,52.3,50.9,29.81,SSW,207,3.0,4.0,95,0.00,,,0.48,Wunderground v.1.15,2013-01-29 22:30:00,
2013-01-29 17:36:00,52.3,50.9,29.81,WSW,243,3.0,10.0,95,0.00,,,0.49,Wunderground v.1.15,2013-01-29 22:36:00,
2013-01-29 17:42:00,52.4,51.0,29.80,South,179,2.0,10.0,95,0.07,,,0.50,Wunderground v.1.15,2013-01-29 22:42:00,
2013-01-29 17:48:00,52.5,51.1,29.79,WSW,238,3.0,10.0,95,0.07,,,0.50,Wunderground v.1.15,2013-01-29 22:48:00,
2013-01-29 17:54:00,52.6,51.2,29.79,SW,217,3.0,10.0,95,0.04,,,0.50,Wunderground v.1.15,2013-01-29 22:54:00,
2013-01-29 18:00:00,52.7,51.3,29.79,SW,218,3.0,5.0,95,0.00,,,0.50,Wunderground v.1.15,2013-01-29 23:00:00,
2013-01-29 18:06:00,52.8,51.1,29.79,SW,224,3.0,5.0,94,0.00,,,0.50,Wunderground v.1.15,2013-01-29 23:06:00,
2013-01-29 18:12:00,52.9,51.2,29.78,SSW,211,2.0,3.0,94,0.00,,,0.50,Wunderground v.1.15,2013-01-29 23:12:00,
2013-01-29 18:18:00,53.1,51.4,29.78,SW,219,3.0,4.0,94,0.00,,,0.50,Wunderground v.1.15,2013-01-29 23:18:00,
2013-01-29 18:24:00,53.2,51.5,29.78,South,190,3.0,3.0,94,0.00,,,0.50,Wunderground v.1.15,2013-01-29 23:24:00,
2013-01-29 18:30:00,53.4,51.7,29.78,SSW,193,3.0,4.0,94,0.00,,,0.50,Wunderground v.1.15,2013-01-29 23:30:00,
2013-01-29 18:36:00,53.5,51.8,29.78,SSW,203,3.0,4.0,94,0.00,,,0.50,Wunderground v.1.15,2013-01-29 23:36:00,
2013-01-29 18:42:00,53.5,51.8,29.78,WSW,255,3.0,4.0,94,0.00,,,0.50,Wunderground v.1.15,2013-01-29 23:42:00,
2013-01-29 18:48:00,53.6,51.6,29.78,South,187,3.0,5.0,93,0.00,,,0.50,Wunderground v.1.15,2013-01-29 23:48:00,
2013-01-29 18:54:00,53.8,51.8,29.78,SSW,203,3.0,5.0,93,0.00,,,0.50,Wunderground v.1.15,2013-01-29 23:54:00,
2013-01-29 19:00:00,53.9,51.9,29.78,SW,219,3.0,3.0,93,0.00,,,0.50,Wunderground v.1.15,2013-01-30 00:00:00,
2013-01-29 19:06:00,54.1,52.1,29.78,SSW,213,3.0,3.0,93,0.00,,,0.50,Wunderground v.1.15,2013-01-30 00:06:00,
2013-01-29 19:12:00,54.4,52.4,29.79,SSE,153,3.0,3.0,93,0.00,,,0.50,Wunderground v.1.15,2013-01-30 00:12:00,
2013-01-29 19:18:00,54.5,52.5,29.79,South,176,4.0,5.0,93,0.00,,,0.50,Wunderground v.1.15,2013-01-30 00:18:00,
2013-01-29 19:24:00,54.6,52.3,29.79,SSW,195,3.0,6.0,92,0.00,,,0.50,Wunderground v.1.15,2013-01-30 00:24:00,
2013-01-29 19:30:00,54.7,52.7,29.79,South,176,3.0,3.0,93,0.00,,,0.51,Wunderground v.1.15,2013-01-30 00:30:00,
2013-01-29 19:36:00,54.6,52.6,29.80,WSW,250,3.0,4.0,93,0.11,,,0.52,Wunderground v.1.15,2013-01-30 00:36:00,
2013-01-29 19:42:00,54.5,52.8,29.79,SW,236,3.0,4.0,94,0.10,,,0.53,Wunderground v.1.15,2013-01-30 00:42:00,
2013-01-29 19:48:00,54.3,52.6,29.79,WSW,257,3.0,4.0,94,0.06,,,0.54,Wunderground v.1.15,2013-01-30 00:48:00,
2013-01-29 19:54:00,54.2,52.5,29.79,SSW,206,2.0,3.0,94,0.06,,,0.54,Wunderground v.1.15,2013-01-30 00:54:00,
2013-01-29 20:00:00,54.1,52.4,29.78,SSW,197,2.0,2.0,94,0.04,,,0.54,Wunderground v.1.15,2013-01-30 01:00:00,
2013-01-29 20:06:00,54.0,52.3,29.78,SSE,153,2.0,3.0,94,0.00,,,0.54,Wunderground v.1.15,2013-01-30 01:06:00,
2013-01-29 20:12:00,53.9,52.5,29.77,SW,218,2.0,2.0,95,0.00,,,0.54,Wunderground v.1.15,2013-01-30 01:12:00,
2013-01-29 20:18:00,53.8,52.1,29.78,SSW,201,2.0,3.0,94,0.00,,,0.54,Wunderground v.1.15,2013-01-30 01:18:00,
2013-01-29 20:24:00,53.9,52.5,29.77,SSW,200,2.0,4.0,95,0.00,,,0.54,Wunderground v.1.15,2013-01-30 01:24:00,
2013-01-29 20:30:00,53.9,52.2,29.77,SSW,211,2.0,5.0,94,0.00,,,0.55,Wunderground v.1.15,2013-01-30 01:30:00,
2013-01-29 20:36:00,54.1,52.4,29.78,SW,233,2.0,5.0,94,0.00,,,0.55,Wunderground v.1.15,2013-01-30 01:36:00,
2013-01-29 20:42:00,54.1,52.4,29.77,SW,214,2.0,4.0,94,0.00,,,0.55,Wunderground v.1.15,2013-01-30 01:42:00,
2013-01-29 20:48:00,54.2,52.5,29.77,South,183,2.0,4.0,94,0.00,,,0.55,Wunderground v.1.15,2013-01-30 01:48:00,
2013-01-29 20:54:00,54.3,52.6,29.76,SSW,204,2.0,5.0,94,0.00,,,0.55,Wunderground v.1.15,2013-01-30 01:54:00,
2013-01-29 21:00:00,54.3,52.6,29.77,South,177,2.0,3.0,94,0.00,,,0.55,Wunderground v.1.15,2013-01-30 02:00:00,
2013-01-29 21:06:00,54.4,52.7,29.77,SW,226,2.0,4.0,94,0.00,,,0.55,Wunderground v.1.15,2013-01-30 02:06:00,
2013-01-29 21:12:00,54.6,52.9,29.77,SW,224,3.0,3.0,94,0.00,,,0.55,Wunderground v.1.15,2013-01-30 02:12:00,
2013-01-29 21:18:00,54.6,52.6,29.76,SW,220,2.0,3.0,93,0.00,,,0.55,Wunderground v.1.15,2013-01-30 02:18:00,
2013-01-29 21:24:00,54.7,52.7,29.76,SSW,204,2.0,4.0,93,0.00,,,0.55,Wunderground v.1.15,2013-01-30 02:24:00,
2013-01-29 21:30:00,54.8,52.8,29.76,South,184,3.0,3.0,93,0.00,,,0.55,Wunderground v.1.15,2013-01-30 02:30:00,
2013-01-29 21:36:00,54.9,52.9,29.76,SSW,206,2.0,3.0,93,0.00,,,0.55,Wunderground v.1.15,2013-01-30 02:36:00,
2013-01-29 21:42:00,55.0,53.0,29.76,SSW,212,3.0,3.0,93,0.00,,,0.55,Wunderground v.1.15,2013-01-30 02:42:00,
2013-01-29 21:48:00,55.1,53.1,29.76,South,177,3.0,3.0,93,0.00,,,0.55,Wunderground v.1.15,2013-01-30 02:48:00,
2013-01-29 21:54:00,55.3,53.3,29.76,SSW,205,3.0,5.0,93,0.00,,,0.56,Wunderground v.1.15,2013-01-30 02:54:00,
2013-01-29 22:00:00,55.4,53.4,29.76,SW,231,3.0,3.0,93,0.08,,,0.57,Wunderground v.1.15,2013-01-30 03:00:00,
2013-01-29 22:06:00,55.3,53.3,29.75,SW,219,3.0,4.0,93,0.08,,,0.57,Wunderground v.1.15,2013-01-30 03:06:00,
2013-01-29 22:12:00,55.4,53.7,29.75,South,186,3.0,3.0,94,0.06,,,0.58,Wunderground v.1.15,2013-01-30 03:12:00,
2013-01-29 22:18:00,55.4,53.7,29.74,SSW,199,3.0,3.0,94,0.13,,,0.59,Wunderground v.1.15,2013-01-30 03:18:00,
2013-01-29 22:24:00,55.5,53.8,29.73,South,186,3.0,4.0,94,0.07,,,0.59,Wunderground v.1.15,2013-01-30 03:24:00,
2013-01-29 22:30:00,55.7,54.0,29.72,South,177,4.0,4.0,94,0.04,,,0.59,Wunderground v.1.15,2013-01-30 03:30:00,
2013-01-29 22:36:00,55.7,53.7,29.72,SSW,195,3.0,4.0,93,0.00,,,0.59,Wunderground v.1.15,2013-01-30 03:36:00,
2013-01-29 22:42:00,55.6,53.9,29.72,SSW,212,3.0,3.0,94,0.00,,,0.59,Wunderground v.1.15,2013-01-30 03:42:00,
2013-01-29 22:48:00,55.6,53.6,29.71,SSW,192,3.0,4.0,93,0.00,,,0.59,Wunderground v.1.15,2013-01-30 03:48:00,
2013-01-29 22:54:00,55.7,53.7,29.71,SSW,197,3.0,5.0,93,0.00,,,0.59,Wunderground v.1.15,2013-01-30 03:54:00,
2013-01-29 23:00:00,55.8,53.8,29.71,SSW,195,3.0,3.0,93,0.00,,,0.59,Wunderground v.1.15,2013-01-30 04:00:00,
2013-01-29 23:06:00,55.9,53.6,29.70,SSW,204,3.0,4.0,92,0.00,,,0.59,Wunderground v.1.15,2013-01-30 04:06:00,
2013-01-29 23:12:00,56.0,53.7,29.70,South,173,3.0,5.0,92,0.00,,,0.59,Wunderground v.1.15,2013-01-30 04:12:00,
2013-01-29 23:18:00,56.2,53.9,29.70,SSE,153,3.0,5.0,92,0.00,,,0.59,Wunderground v.1.15,2013-01-30 04:18:00,
2013-01-29 23:24:00,56.2,53.6,29.70,SW,214,3.0,3.0,91,0.00,,,0.59,Wunderground v.1.15,2013-01-30 04:24:00,
2013-01-29 23:30:00,56.1,53.8,29.69,SSW,201,2.0,6.0,92,0.00,,,0.59,Wunderground v.1.15,2013-01-30 04:30:00,
2013-01-29 23:36:00,56.3,53.7,29.69,SSW,197,3.0,6.0,91,0.00,,,0.59,Wunderground v.1.15,2013-01-30 04:36:00,
2013-01-29 23:42:00,56.4,53.8,29.69,SSW,195,4.0,4.0,91,0.00,,,0.59,Wunderground v.1.15,2013-01-30 04:42:00,
2013-01-29 23:48:00,56.6,54.0,29.69,South,173,4.0,6.0,91,0.00,,,0.60,Wunderground v.1.15,2013-01-30 04:48:00,
2013-01-29 23:54:00,56.8,54.2,29.68,SSE,166,4.0,7.0,91,0.13,,,0.61,Wunderground v.1.15,2013-01-30 04:54:00,